Regional Weather Roundup
Issued by NWS

Home | Current Version | Previous Version | Text Only | Print | Product List | Glossary Off
Versions: 1 2 3 4 5 6 7 8 9 10 11 12 13 14 15 16 17 18 19 20 21 22 23 24 25 26 27 28 29 30 31 32 33 34 35 36 37 38 39 40 41 42 43 44 45 46 47 48 49 50

000
ASUS45 KBOI 232010
RWRID
WEATHER ROUNDUP FOR IDAHO
NATIONAL WEATHER SERVICE BOISE ID
200 PM MDT WED JUL 23 2014

NOTE: "FAIR" INDICATES FEW OR NO CLOUDS BELOW 12000 FEET
WITH NO SIGNIFICANT WEATHER AND/OR OBSTRUCTIONS TO VISIBILITY

IDZ012-014-232100-
SOUTHWEST IDAHO


CITY           SKY/WX    TMP DP  RH WIND       PRES   REMARKS
BOISE          SUNNY     89  42  19 W5        30.00F
CALDWELL       SUNNY     88  52  29 E3        30.01F
MOUNTAIN HOME  SUNNY     91  44  19 CALM      29.99F
$$

IDZ016-017-232100-
SOUTHCENTRAL IDAHO


CITY           SKY/WX    TMP DP  RH WIND       PRES   REMARKS
BURLEY         SUNNY     89  49  25 VRB5      30.07F
JEROME         PTSUNNY   86  55  34 VRB5      30.08F
TWIN FALLS     MOSUNNY   90  47  22 N10       30.07F
$$

IDZ019>023-232100-
SOUTHEAST IDAHO


CITY           SKY/WX    TMP DP  RH WIND       PRES   REMARKS
IDAHO FALLS    MOSUNNY   90  42  18 SW12      30.15F
POCATELLO      SUNNY     89  44  20 NW8       30.11F
REXBURG        SUNNY     86  39  19 SW10      30.16F
$$

IDZ006-010-011-018-031-032-232100-
CENTRAL IDAHO MOUNTAINS


CITY           SKY/WX    TMP DP  RH WIND       PRES   REMARKS
MCCALL         MOSUNNY   80  46  30 SE12G23   30.10F
HAILEY         PTSUNNY   81  54  39 SE12      30.19F
STANLEY          N/A     79  32  18 CALM      30.22F
SALMON         PTSUNNY   79  54  41 SW3       30.05F
CHALLIS        PTSUNNY   81  45  28 NE5       30.12F
$$

IDZ002-004-006-007-026-232100-
NORTHERN IDAHO


CITY           SKY/WX    TMP DP  RH WIND       PRES   REMARKS
LEWISTON       SUNNY     92  57  30 N12       29.83F HX  90
LOWELL           N/A     94  58  29 CALM      29.83F HX  93
COEUR D`ALENE  SUNNY     82  57  42 NE6       29.91F
MULLAN PASS    SUNNY     69  51  52 VRB5      30.15F
$$



USA.gov is the U.S. government's official web portal to all federal, state and local government web resources and services.